,,Stat6,,Stat2,,Stat8,,Stat9,,Stat10,,Wind1,,Wind1,
time,status,PA1M_AVG,status,PR1M_SUM,status,RH1M_AVG,status,SR1M_AVG,status,TA1M_AVG,status,W1dAve1m,status,W1sAve1m,
2004-09-20, 00:00:00,VALID,918.614,VALID,0,VALID,99.2716,VALID,0,VALID,19.5214,VALID,79,VALID,0.0383358,
2004-09-20, 00:01:00,VALID,918.604,VALID,0,VALID,99.1712,VALID,0.0169808,VALID,19.5152,VALID,79,VALID,0.0415396,
2004-09-20, 00:02:00,VALID,918.603,VALID,0,VALID,99.1852,VALID,0.0169808,VALID,19.5115,VALID,79,VALID,0,
2004-09-20, 00:03:00,VALID,918.585,VALID,0,VALID,99.222,VALID,0.0169808,VALID,19.5149,VALID,79,VALID,0.00093006,
2004-09-20, 00:04:00,VALID,918.577,VALID,0,VALID,99.2157,VALID,0,VALID,19.512,VALID,50,VALID,0,
2004-09-20, 00:05:00,VALID,918.572,VALID,0,VALID,99.2437,VALID,0,VALID,19.5154,VALID,15,VALID,0.0873047,
2004-09-20, 00:06:00,VALID,918.575,VALID,0,VALID,99.3161,VALID,0.0169808,VALID,19.5244,VALID,6,VALID,0.174653,
2004-09-20, 00:07:00,VALID,918.578,VALID,0,VALID,99.3034,VALID,0.0169808,VALID,19.541,VALID,358,VALID,0.159375,
2004-09-20, 00:08:00,VALID,918.586,VALID,0,VALID,99.325,VALID,0.0169808,VALID,19.5413,VALID,358,VALID,0,
2004-09-20, 00:09:00,VALID,918.603,VALID,0,VALID,99.3594,VALID,0,VALID,19.5539,VALID,358,VALID,0,
2004-09-20, 00:10:00,VALID,918.615,VALID,0,VALID,99.2525,VALID,-0.0339617,VALID,19.5572,VALID,358,VALID,0,
2004-09-20, 00:11:00,VALID,918.637,VALID,0,VALID,99.1724,VALID,0.0169808,VALID,19.5311,VALID,358,VALID,0,
2004-09-20, 00:12:00,VALID,918.661,VALID,0,VALID,99.0987,VALID,0,VALID,19.5216,VALID,358,VALID,0,
2004-09-20, 00:13:00,VALID,918.669,VALID,0,VALID,99.1076,VALID,-0.0169808,VALID,19.512,VALID,358,VALID,0,
2004-09-20, 00:14:00,VALID,918.672,VALID,0,VALID,99.1267,VALID,0,VALID,19.5055,VALID,358,VALID,0,
2004-09-20, 00:15:00,VALID,918.657,VALID,0,VALID,99.1597,VALID,0,VALID,19.5221,VALID,358,VALID,0,
2004-09-20, 00:16:00,VALID,918.659,VALID,0,VALID,99.1368,VALID,0,VALID,19.509,VALID,358,VALID,0,
2004-09-20, 00:17:00,VALID,918.648,VALID,0,VALID,99.1241,VALID,0,VALID,19.502,VALID,358,VALID,0,
2004-09-20, 00:18:00,VALID,918.634,VALID,0,VALID,99.1724,VALID,0,VALID,19.5055,VALID,358,VALID,0,
2004-09-20, 00:19:00,VALID,918.618,VALID,0,VALID,99.1724,VALID,0,VALID,19.5154,VALID,23,VALID,0.0859375,
2004-09-20, 00:20:00,VALID,918.609,VALID,0,VALID,99.1012,VALID,-0.0169808,VALID,19.4985,VALID,103,VALID,0.399038,
2004-09-20, 00:21:00,VALID,918.585,VALID,0,VALID,99.0898,VALID,-0.0679233,VALID,19.5,VALID,114,VALID,0.661754,
2004-09-20, 00:22:00,VALID,918.579,VALID,0,VALID,99.0796,VALID,-0.0169808,VALID,19.467,VALID,118,VALID,0.690848,
2004-09-20, 00:23:00,VALID,918.57,VALID,0,VALID,99.1139,VALID,0,VALID,19.4484,VALID,132,VALID,0.713605,
2004-09-20, 00:24:00,VALID,918.555,VALID,0,VALID,99.208,VALID,-0.0169808,VALID,19.4215,VALID,138,VALID,0.840298,
2004-09-20, 00:25:00,VALID,918.567,VALID,0,VALID,99.4051,VALID,-0.0169808,VALID,19.4382,VALID,134,VALID,1.01982,
2004-09-20, 00:26:00,VALID,918.57,VALID,0,VALID,99.3721,VALID,-0.0169808,VALID,19.4506,VALID,134,VALID,0.570117,
2004-09-20, 00:27:00,VALID,918.564,VALID,0,VALID,99.2754,VALID,0,VALID,19.4643,VALID,134,VALID,0.331321,
2004-09-20, 00:28:00,VALID,918.581,VALID,0,VALID,99.2449,VALID,-0.0169808,VALID,19.4402,VALID,154,VALID,0.505382,
2004-09-20, 00:29:00,VALID,918.578,VALID,0,VALID,99.3123,VALID,0.0339617,VALID,19.4702,VALID,146,VALID,0.570694,
2004-09-20, 00:30:00,VALID,918.563,VALID,0,VALID,99.3441,VALID,-0.0509425,VALID,19.4538,VALID,131,VALID,0.531597,
2004-09-20, 00:31:00,VALID,918.555,VALID,0,VALID,99.4191,VALID,0,VALID,19.4441,VALID,130,VALID,0.240916,
2004-09-20, 00:32:00,VALID,918.55,VALID,0,VALID,99.5425,VALID,0,VALID,19.4407,VALID,131,VALID,0.358073,
2004-09-20, 00:33:00,VALID,918.545,VALID,0,VALID,99.5946,VALID,-0.0339617,VALID,19.4315,VALID,131,VALID,0.212636,
2004-09-20, 00:34:00,VALID,918.544,VALID,0,VALID,99.6595,VALID,-0.0169808,VALID,19.4215,VALID,131,VALID,0.42569,
2004-09-20, 00:35:00,VALID,918.538,VALID,0,VALID,99.7523,VALID,-0.0169808,VALID,19.4215,VALID,131,VALID,0.38899,
2004-09-20, 00:36:00,VALID,918.559,VALID,0,VALID,99.826,VALID,-0.0169808,VALID,19.425,VALID,131,VALID,0.330729,
2004-09-20, 00:37:00,VALID,918.534,VALID,0,VALID,99.8947,VALID,0,VALID,19.422,VALID,131,VALID,0.434524,
2004-09-20, 00:38:00,VALID,918.541,VALID,0,VALID,99.957,VALID,0,VALID,19.4153,VALID,131,VALID,0.346726,
2004-09-20, 00:39:00,VALID,918.534,VALID,0,VALID,99.9906,VALID,0,VALID,19.4186,VALID,131,VALID,0.503374,
2004-09-20, 00:40:00,VALID,918.511,VALID,0,VALID,100,VALID,0,VALID,19.4148,VALID,131,VALID,0.549964,
2004-09-20, 00:41:00,VALID,918.495,VALID,0,VALID,100,VALID,0,VALID,19.4188,VALID,132,VALID,0.58689,
2004-09-20, 00:42:00,VALID,918.48,VALID,0,VALID,100,VALID,0,VALID,19.4156,VALID,132,VALID,0.65189,
2004-09-20, 00:43:00,VALID,918.459,VALID,0,VALID,99.9967,VALID,0,VALID,19.4059,VALID,132,VALID,0.650436,
2004-09-20, 00:44:00,VALID,918.44,VALID,0,VALID,99.9934,VALID,0,VALID,19.3989,VALID,132,VALID,0.526708,
2004-09-20, 00:45:00,VALID,918.424,VALID,0,VALID,99.9697,VALID,-0.0169808,VALID,19.3828,VALID,130,VALID,0.584722,
2004-09-20, 00:46:00,VALID,918.418,VALID,0,VALID,99.924,VALID,0,VALID,19.3863,VALID,128,VALID,0.606597,
2004-09-20, 00:47:00,VALID,918.406,VALID,0,VALID,99.896,VALID,0.0169808,VALID,19.3801,VALID,129,VALID,0.670573,
2004-09-20, 00:48:00,VALID,918.408,VALID,0,VALID,99.8591,VALID,-0.0169808,VALID,19.3734,VALID,131,VALID,0.436756,
2004-09-20, 00:49:00,VALID,918.397,VALID,0,VALID,99.854,VALID,0,VALID,19.3863,VALID,132,VALID,0.564538,
2004-09-20, 00:50:00,VALID,918.396,VALID,0,VALID,99.8566,VALID,-0.0169808,VALID,19.4059,VALID,143,VALID,0.525694,
2004-09-20, 00:51:00,VALID,918.401,VALID,0,VALID,99.8362,VALID,0,VALID,19.3952,VALID,143,VALID,0.2004,
2004-09-20, 00:52:00,VALID,918.405,VALID,0,VALID,99.7968,VALID,0,VALID,19.422,VALID,140,VALID,0.425877,
2004-09-20, 00:53:00,VALID,918.401,VALID,0,VALID,99.7421,VALID,0,VALID,19.4019,VALID,140,VALID,0.386161,
2004-09-20, 00:54:00,VALID,918.407,VALID,0,VALID,99.6696,VALID,-0.0169808,VALID,19.4022,VALID,130,VALID,0.572621,
2004-09-20, 00:55:00,VALID,918.398,VALID,0,VALID,99.6773,VALID,0.0169808,VALID,19.3955,VALID,127,VALID,0.458519,
2004-09-20, 00:56:00,VALID,918.391,VALID,0,VALID,99.6709,VALID,-0.0169808,VALID,19.4027,VALID,127,VALID,0.360828,
2004-09-20, 00:57:00,VALID,918.383,VALID,0,VALID,99.648,VALID,0,VALID,19.3957,VALID,127,VALID,0.380145,
2004-09-20, 00:58:00,VALID,918.385,VALID,0,VALID,99.6162,VALID,-0.0169808,VALID,19.3992,VALID,127,VALID,0.302083,
2004-09-20, 00:59:00,VALID,918.38,VALID,0,VALID,99.5094,VALID,0.0169808,VALID,19.3987,VALID,127,VALID,0.6,
2004-09-20, 01:00:00,VALID,918.376,VALID,0,VALID,99.4789,VALID,0,VALID,19.3858,VALID,128,VALID,0.600074,
2004-09-20, 01:01:00,VALID,918.392,VALID,0,VALID,99.484,VALID,0,VALID,19.3925,VALID,128,VALID,0.84446,
2004-09-20, 01:02:00,VALID,918.389,VALID,0,VALID,99.4408,VALID,0,VALID,19.4054,VALID,126,VALID,0.991824,
2004-09-20, 01:03:00,VALID,918.401,VALID,0,VALID,99.292,VALID,0,VALID,19.4119,VALID,125,VALID,1.01209,
2004-09-20, 01:04:00,VALID,918.41,VALID,0,VALID,99.1635,VALID,-0.0339617,VALID,19.4153,VALID,113,VALID,0.862805,
2004-09-20, 01:05:00,VALID,918.416,VALID,0,VALID,98.9842,VALID,0,VALID,19.4017,VALID,123,VALID,0.835747,
2004-09-20, 01:06:00,VALID,918.42,VALID,0,VALID,98.8494,VALID,0.0169808,VALID,19.4052,VALID,114,VALID,0.736374,
2004-09-20, 01:07:00,VALID,918.415,VALID,0,VALID,98.7566,VALID,0,VALID,19.4119,VALID,116,VALID,0.824855,
2004-09-20, 01:08:00,VALID,918.4,VALID,0,VALID,98.735,VALID,0,VALID,19.4086,VALID,116,VALID,0.307958,
2004-09-20, 01:09:00,VALID,918.387,VALID,0,VALID,98.7197,VALID,0,VALID,19.4188,VALID,127,VALID,0.811612,
2004-09-20, 01:10:00,VALID,918.349,VALID,0,VALID,98.7414,VALID,0,VALID,19.4086,VALID,127,VALID,0.709375,
2004-09-20, 01:11:00,VALID,918.32,VALID,0,VALID,98.8901,VALID,0.0169808,VALID,19.4153,VALID,131,VALID,0.853225,
2004-09-20, 01:12:00,VALID,918.304,VALID,0,VALID,99.0936,VALID,0,VALID,19.4123,VALID,132,VALID,0.688086,
2004-09-20, 01:13:00,VALID,918.283,VALID,0,VALID,99.2322,VALID,-0.0339617,VALID,19.4049,VALID,134,VALID,0.990371,
2004-09-20, 01:14:00,VALID,918.27,VALID,0,VALID,99.3479,VALID,0.0169808,VALID,19.3927,VALID,134,VALID,0.662109,
2004-09-20, 01:15:00,VALID,918.263,VALID,0,VALID,99.4446,VALID,0,VALID,19.3828,VALID,132,VALID,0.747692,
2004-09-20, 01:16:00,VALID,918.258,VALID,0,VALID,99.5412,VALID,-0.0339617,VALID,19.3604,VALID,130,VALID,0.653773,
2004-09-20, 01:17:00,VALID,918.254,VALID,0,VALID,99.6404,VALID,0,VALID,19.347,VALID,131,VALID,0.592076,
2004-09-20, 01:18:00,VALID,918.244,VALID,0,VALID,99.6976,VALID,0,VALID,19.3311,VALID,131,VALID,0.141533,
2004-09-20, 01:19:00,VALID,918.237,VALID,0,VALID,99.7269,VALID,0,VALID,19.3115,VALID,131,VALID,0.347284,
2004-09-20, 01:20:00,VALID,918.219,VALID,0,VALID,99.7358,VALID,0,VALID,19.3023,VALID,129,VALID,0.295856,
2004-09-20, 01:21:00,VALID,918.222,VALID,0,VALID,99.7599,VALID,0,VALID,19.2795,VALID,123,VALID,0.370561,
2004-09-20, 01:22:00,VALID,918.193,VALID,0,VALID,99.7981,VALID,-0.0169808,VALID,19.27,VALID,115,VALID,0.30785,
2004-09-20, 01:23:00,VALID,918.185,VALID,0,VALID,99.8553,VALID,0,VALID,19.2633,VALID,94,VALID,0.157703,
2004-09-20, 01:24:00,VALID,918.167,VALID,0,VALID,99.8934,VALID,0,VALID,19.2797,VALID,84,VALID,0.20367,
2004-09-20, 01:25:00,VALID,918.154,VALID,0,VALID,99.8642,VALID,0,VALID,19.2825,VALID,82,VALID,0.256882,
2004-09-20, 01:26:00,VALID,918.128,VALID,0,VALID,99.7663,VALID,-0.0169808,VALID,19.3023,VALID,82,VALID,0.648256,
2004-09-20, 01:27:00,VALID,918.118,VALID,0,VALID,99.6518,VALID,0,VALID,19.3083,VALID,89,VALID,0.512091,
2004-09-20, 01:28:00,VALID,918.11,VALID,0,VALID,99.5132,VALID,-0.0169808,VALID,19.3281,VALID,90,VALID,0.169085,
2004-09-20, 01:29:00,VALID,918.108,VALID,0,VALID,99.3886,VALID,-0.0169808,VALID,19.3381,VALID,87,VALID,0.0893895,
2004-09-20, 01:30:00,VALID,918.115,VALID,0,VALID,99.2487,VALID,-0.0169808,VALID,19.3512,VALID,88,VALID,0.291371,
2004-09-20, 01:31:00,VALID,918.103,VALID,0,VALID,99.1788,VALID,-0.0339617,VALID,19.3443,VALID,103,VALID,0.275856,
2004-09-20, 01:32:00,VALID,918.095,VALID,0,VALID,99.1152,VALID,-0.0169808,VALID,19.3485,VALID,108,VALID,0.113111,
2004-09-20, 01:33:00,VALID,918.088,VALID,0,VALID,99.0262,VALID,-0.0339617,VALID,19.3346,VALID,108,VALID,0,
2004-09-20, 01:34:00,VALID,918.085,VALID,0,VALID,98.9677,VALID,0,VALID,19.315,VALID,113,VALID,0.0801711,
2004-09-20, 01:35:00,VALID,918.061,VALID,0,VALID,98.9537,VALID,-0.0169808,VALID,19.2988,VALID,121,VALID,0.43423,
2004-09-20, 01:36:00,VALID,918.051,VALID,0,VALID,99.0389,VALID,-0.0509425,VALID,19.2832,VALID,118,VALID,0.348474,
2004-09-20, 01:37:00,VALID,918.027,VALID,0,VALID,99.2157,VALID,0,VALID,19.2929,VALID,126,VALID,0.380504,
2004-09-20, 01:38:00,VALID,918.028,VALID,0,VALID,99.2373,VALID,0,VALID,19.2765,VALID,120,VALID,0.200195,
2004-09-20, 01:39:00,VALID,918.001,VALID,0,VALID,99.2805,VALID,0,VALID,19.2601,VALID,135,VALID,0.289444,
2004-09-20, 01:40:00,VALID,917.993,VALID,0,VALID,99.4433,VALID,0,VALID,19.2509,VALID,146,VALID,0.430618,
2004-09-20, 01:41:00,VALID,917.982,VALID,0,VALID,99.6378,VALID,-0.0509425,VALID,19.2583,VALID,149,VALID,0.544097,
2004-09-20, 01:42:00,VALID,917.963,VALID,0,VALID,99.7027,VALID,-0.0679233,VALID,19.2549,VALID,140,VALID,0.531436,
2004-09-20, 01:43:00,VALID,917.937,VALID,0,VALID,99.7688,VALID,-0.0849042,VALID,19.2486,VALID,137,VALID,0.323103,
2004-09-20, 01:44:00,VALID,917.902,VALID,0,VALID,99.8159,VALID,-0.101885,VALID,19.2422,VALID,133,VALID,0.509549,
2004-09-20, 01:45:00,VALID,917.881,VALID,0,VALID,99.8502,VALID,-0.0849042,VALID,19.2357,VALID,145,VALID,0.400036,
2004-09-20, 01:46:00,VALID,917.86,VALID,0,VALID,99.9036,VALID,-0.101885,VALID,19.2097,VALID,138,VALID,0.689918,
2004-09-20, 01:47:00,VALID,917.859,VALID,0,VALID,99.9893,VALID,-0.0679233,VALID,19.1903,VALID,138,VALID,0.661086,
2004-09-20, 01:48:00,VALID,917.856,VALID,0,VALID,100,VALID,-0.0849042,VALID,19.1806,VALID,120,VALID,0.909961,
2004-09-20, 01:49:00,VALID,917.852,VALID,0,VALID,100,VALID,-0.0679233,VALID,19.1617,VALID,128,VALID,0.71147,
2004-09-20, 01:50:00,VALID,917.838,VALID,0,VALID,100,VALID,-0.0339617,VALID,19.1649,VALID,131,VALID,0.497904,
2004-09-20, 01:51:00,VALID,917.831,VALID,0,VALID,100,VALID,-0.0339617,VALID,19.1518,VALID,120,VALID,0.56715,
2004-09-20, 01:52:00,VALID,917.829,VALID,0,VALID,100,VALID,-0.0169808,VALID,19.1359,VALID,114,VALID,0.428163,
2004-09-20, 01:53:00,VALID,917.824,VALID,0,VALID,100,VALID,-0.0849042,VALID,19.1289,VALID,108,VALID,0.390997,
2004-09-20, 01:54:00,VALID,917.811,VALID,0,VALID,100,VALID,-0.0509425,VALID,19.113,VALID,83,VALID,0.170387,
2004-09-20, 01:55:00,VALID,917.796,VALID,0,VALID,100,VALID,-0.0339617,VALID,19.0929,VALID,95,VALID,0.238735,
2004-09-20, 01:56:00,VALID,917.789,VALID,0,VALID,100,VALID,-0.0679233,VALID,19.0837,VALID,100,VALID,0.14098,
2004-09-20, 01:57:00,VALID,917.796,VALID,0,VALID,100,VALID,-0.101885,VALID,19.0708,VALID,91,VALID,0.155869,
2004-09-20, 01:58:00,VALID,917.792,VALID,0,VALID,100,VALID,-0.0849042,VALID,19.0581,VALID,91,VALID,0.177326,
2004-09-20, 01:59:00,VALID,917.797,VALID,0,VALID,100,VALID,-0.0849042,VALID,19.0581,VALID,85,VALID,0.456473,
2004-09-20, 02:00:00,VALID,917.8,VALID,0,VALID,100,VALID,-0.0339617,VALID,19.0549,VALID,100,VALID,0.432736,
2004-09-20, 02:01:00,VALID,917.794,VALID,0,VALID,100,VALID,-0.0509425,VALID,19.0482,VALID,109,VALID,0.450195,
2004-09-20, 02:02:00,VALID,917.786,VALID,0,VALID,100,VALID,-0.0679233,VALID,19.0646,VALID,109,VALID,0.443164,
2004-09-20, 02:03:00,VALID,917.766,VALID,0,VALID,100,VALID,-0.0169808,VALID,19.0544,VALID,128,VALID,0.366587,
2004-09-20, 02:04:00,VALID,917.744,VALID,0,VALID,100,VALID,-0.0679233,VALID,19.074,VALID,148,VALID,0.402344,
2004-09-20, 02:05:00,VALID,917.726,VALID,0,VALID,100,VALID,-0.0169808,VALID,19.1031,VALID,154,VALID,0.90625,
2004-09-20, 02:06:00,VALID,917.71,VALID,0,VALID,100,VALID,-0.0509425,VALID,19.1356,VALID,146,VALID,0.96441,
2004-09-20, 02:07:00,VALID,917.678,VALID,0,VALID,100,VALID,-0.0849042,VALID,19.1577,VALID,134,VALID,1.14379,
2004-09-20, 02:08:00,VALID,917.656,VALID,0,VALID,100,VALID,-0.0679233,VALID,19.1811,VALID,125,VALID,0.800509,
2004-09-20, 02:09:00,VALID,917.645,VALID,0,VALID,100,VALID,-0.0509425,VALID,19.1806,VALID,132,VALID,0.904978,
2004-09-20, 02:10:00,VALID,917.63,VALID,0,VALID,100,VALID,-0.0849042,VALID,19.1736,VALID,108,VALID,0.650923,
2004-09-20, 02:11:00,VALID,917.602,VALID,0,VALID,100,VALID,0.0679233,VALID,19.1662,VALID,119,VALID,0.757254,
2004-09-20, 02:12:00,VALID,917.588,VALID,0,VALID,100,VALID,0.0339617,VALID,19.16,VALID,95,VALID,0.640625,
2004-09-20, 02:13:00,VALID,917.592,VALID,0,VALID,100,VALID,0.0339617,VALID,19.1471,VALID,115,VALID,0.867746,
2004-09-20, 02:14:00,VALID,917.572,VALID,0,VALID,100,VALID,0.0339617,VALID,19.1506,VALID,126,VALID,0.654018,
2004-09-20, 02:15:00,VALID,917.565,VALID,0,VALID,100,VALID,0,VALID,19.1441,VALID,149,VALID,0.815952,
2004-09-20, 02:16:00,VALID,917.552,VALID,0,VALID,100,VALID,0.0169808,VALID,19.1665,VALID,133,VALID,1.12396,
2004-09-20, 02:17:00,VALID,917.521,VALID,0,VALID,100,VALID,0.0169808,VALID,19.2025,VALID,150,VALID,1.12355,
2004-09-20, 02:18:00,VALID,917.498,VALID,0,VALID,100,VALID,0.0339617,VALID,19.202,VALID,150,VALID,0.99375,
2004-09-20, 02:19:00,VALID,917.477,VALID,0,VALID,100,VALID,0.0339617,VALID,19.1858,VALID,143,VALID,0.70846,
2004-09-20, 02:20:00,VALID,917.462,VALID,0,VALID,100,VALID,0.0339617,VALID,19.1826,VALID,149,VALID,0.546697,
2004-09-20, 02:21:00,VALID,917.455,VALID,0,VALID,100,VALID,0.0679233,VALID,19.1727,VALID,128,VALID,0.672917,
2004-09-20, 02:22:00,VALID,917.455,VALID,0,VALID,100,VALID,0.0169808,VALID,19.1764,VALID,137,VALID,0.784054,
2004-09-20, 02:23:00,VALID,917.444,VALID,0,VALID,100,VALID,0.0169808,VALID,19.1672,VALID,153,VALID,1.36257,
2004-09-20, 02:24:00,VALID,917.441,VALID,0,VALID,100,VALID,0.0169808,VALID,19.1799,VALID,140,VALID,1.12227,
2004-09-20, 02:25:00,VALID,917.429,VALID,0,VALID,100,VALID,0.0169808,VALID,19.1794,VALID,167,VALID,0.709635,
2004-09-20, 02:26:00,VALID,917.443,VALID,0,VALID,100,VALID,-0.0169808,VALID,19.1841,VALID,143,VALID,0.820833,
2004-09-20, 02:27:00,VALID,917.449,VALID,0,VALID,100,VALID,-0.0169808,VALID,19.2002,VALID,160,VALID,0.890625,
2004-09-20, 02:28:00,VALID,917.441,VALID,0,VALID,100,VALID,-0.0509425,VALID,19.2198,VALID,157,VALID,1.04592,
2004-09-20, 02:29:00,VALID,917.447,VALID,0,VALID,100,VALID,-0.0679233,VALID,19.2486,VALID,166,VALID,1.08727,
2004-09-20, 02:30:00,VALID,917.458,VALID,0,VALID,100,VALID,-0.0849042,VALID,19.2648,VALID,154,VALID,0.45367,
2004-09-20, 02:31:00,VALID,917.451,VALID,0,VALID,100,VALID,-0.0509425,VALID,19.2779,VALID,174,VALID,0.0944294,
2004-09-20, 02:32:00,VALID,917.469,VALID,0,VALID,100,VALID,-0.0849042,VALID,19.2804,VALID,174,VALID,0,
2004-09-20, 02:33:00,VALID,917.473,VALID,0,VALID,100,VALID,-0.0849042,VALID,19.2745,VALID,174,VALID,0,
2004-09-20, 02:34:00,VALID,917.477,VALID,0,VALID,100,VALID,-0.0509425,VALID,19.2712,VALID,174,VALID,0,
2004-09-20, 02:35:00,VALID,917.477,VALID,0,VALID,100,VALID,-0.0339617,VALID,19.268,VALID,174,VALID,0,
2004-09-20, 02:36:00,VALID,917.483,VALID,0,VALID,100,VALID,-0.0679233,VALID,19.2777,VALID,149,VALID,0.477628,
2004-09-20, 02:37:00,VALID,917.47,VALID,0,VALID,100,VALID,-0.0339617,VALID,19.2742,VALID,138,VALID,0.48941,
2004-09-20, 02:38:00,VALID,917.472,VALID,0,VALID,100,VALID,-0.0509425,VALID,19.2909,VALID,137,VALID,0.00558036,
2004-09-20, 02:39:00,VALID,917.476,VALID,0,VALID,100,VALID,-0.0679233,VALID,19.2777,VALID,137,VALID,0.10774,
2004-09-20, 02:40:00,VALID,917.484,VALID,0,VALID,100,VALID,-0.0849042,VALID,19.2807,VALID,137,VALID,0.0617188,
2004-09-20, 02:41:00,VALID,917.484,VALID,0,VALID,100,VALID,0,VALID,19.2762,VALID,156,VALID,0.534549,
2004-09-20, 02:42:00,VALID,917.468,VALID,0,VALID,100,VALID,0.0679233,VALID,19.2829,VALID,167,VALID,0.570513,
2004-09-20, 02:43:00,VALID,917.465,VALID,0,VALID,100,VALID,0.0339617,VALID,19.273,VALID,154,VALID,0.722957,
2004-09-20, 02:44:00,VALID,917.467,VALID,0,VALID,100,VALID,0.0509425,VALID,19.2825,VALID,159,VALID,0.926711,
2004-09-20, 02:45:00,VALID,917.464,VALID,0,VALID,100,VALID,0.0169808,VALID,19.3055,VALID,151,VALID,1.01944,
2004-09-20, 02:46:00,VALID,917.463,VALID,0,VALID,100,VALID,0.0509425,VALID,19.3185,VALID,168,VALID,0.9375,
2004-09-20, 02:47:00,VALID,917.475,VALID,0,VALID,100,VALID,0,VALID,19.3219,VALID,138,VALID,0.684896,
2004-09-20, 02:48:00,VALID,917.471,VALID,0,VALID,100,VALID,0.0339617,VALID,19.3217,VALID,150,VALID,0.464286,
2004-09-20, 02:49:00,VALID,917.477,VALID,0,VALID,100,VALID,0.0509425,VALID,19.3115,VALID,151,VALID,0.794444,
2004-09-20, 02:50:00,VALID,917.45,VALID,0,VALID,100,VALID,0.0509425,VALID,19.3219,VALID,159,VALID,0.807884,
2004-09-20, 02:51:00,VALID,917.428,VALID,0,VALID,100,VALID,0.0169808,VALID,19.3085,VALID,134,VALID,0.500372,
2004-09-20, 02:52:00,VALID,917.418,VALID,0,VALID,100,VALID,0.0509425,VALID,19.2921,VALID,120,VALID,0.258185,
2004-09-20, 02:53:00,VALID,917.407,VALID,0,VALID,100,VALID,0,VALID,19.2926,VALID,154,VALID,0.357777,
2004-09-20, 02:54:00,VALID,917.39,VALID,0,VALID,100,VALID,0.0169808,VALID,19.2926,VALID,151,VALID,0.598656,
2004-09-20, 02:55:00,VALID,917.374,VALID,0,VALID,100,VALID,0.0339617,VALID,19.2795,VALID,147,VALID,0.753551,
2004-09-20, 02:56:00,VALID,917.377,VALID,0,VALID,100,VALID,0.0509425,VALID,19.2762,VALID,146,VALID,1.0198,
2004-09-20, 02:57:00,VALID,917.368,VALID,0,VALID,100,VALID,0.0169808,VALID,19.2825,VALID,141,VALID,1.08913,
2004-09-20, 02:58:00,VALID,917.367,VALID,0,VALID,100,VALID,0.0169808,VALID,19.2698,VALID,139,VALID,0.590511,
2004-09-20, 02:59:01,VALID,917.377,VALID,0,VALID,100,VALID,0.0339617,VALID,19.2504,VALID,118,VALID,0.869665,
2004-09-20, 03:00:00,VALID,917.373,VALID,0,VALID,100,VALID,0.0509425,VALID,19.2444,VALID,127,VALID,0.750372,
2004-09-20, 03:01:00,VALID,917.381,VALID,0,VALID,100,VALID,0.0509425,VALID,19.2246,VALID,137,VALID,0.515625,
2004-09-20, 03:02:00,VALID,917.367,VALID,0,VALID,100,VALID,0.0509425,VALID,19.2313,VALID,155,VALID,0.702753,
2004-09-20, 03:03:00,VALID,917.345,VALID,0,VALID,100,VALID,0.0679233,VALID,19.2149,VALID,157,VALID,0.547045,
2004-09-20, 03:04:00,VALID,917.313,VALID,0,VALID,100,VALID,0.0169808,VALID,19.2308,VALID,167,VALID,0.313408,
2004-09-20, 03:05:00,VALID,917.297,VALID,0,VALID,100,VALID,0.0339617,VALID,19.2377,VALID,160,VALID,0.315104,
2004-09-20, 03:06:00,VALID,917.275,VALID,0,VALID,100,VALID,0.0509425,VALID,19.2218,VALID,156,VALID,0.33576,
2004-09-20, 03:07:00,VALID,917.251,VALID,0,VALID,100,VALID,0.0169808,VALID,19.202,VALID,169,VALID,0.265811,
2004-09-20, 03:08:01,VALID,917.227,VALID,0,VALID,100,VALID,0.0509425,VALID,19.1988,VALID,166,VALID,0.0365854,
2004-09-20, 03:09:00,VALID,917.209,VALID,0,VALID,100,VALID,0.0679233,VALID,19.1891,VALID,164,VALID,0,
2004-09-20, 03:10:00,VALID,917.205,VALID,0,VALID,100,VALID,0.0339617,VALID,19.1729,VALID,160,VALID,0,
2004-09-20, 03:11:00,VALID,917.191,VALID,0,VALID,100,VALID,-0.0339617,VALID,19.1679,VALID,179,VALID,0.0490552,
2004-09-20, 03:12:00,VALID,917.201,VALID,0,VALID,100,VALID,-0.0509425,VALID,19.1679,VALID,160,VALID,0.00818452,
2004-09-20, 03:13:00,VALID,917.192,VALID,0,VALID,100,VALID,-0.101885,VALID,19.1453,VALID,149,VALID,0.0701265,
2004-09-20, 03:14:00,VALID,917.193,VALID,0,VALID,100,VALID,-0.0849042,VALID,19.1165,VALID,144,VALID,0,
2004-09-20, 03:15:00,VALID,917.182,VALID,0,VALID,100,VALID,-0.0679233,VALID,19.0969,VALID,144,VALID,0,
2004-09-20, 03:16:01,VALID,917.175,VALID,0,VALID,100,VALID,-0.0509425,VALID,19.074,VALID,144,VALID,0,
2004-09-20, 03:17:01,VALID,917.169,VALID,0,VALID,100,VALID,-0.0679233,VALID,19.077,VALID,144,VALID,0.0703125,
2004-09-20, 03:18:00,VALID,917.158,VALID,0,VALID,100,VALID,-0.0849042,VALID,19.0872,VALID,143,VALID,0,
2004-09-20, 03:19:00,VALID,917.143,VALID,0,VALID,100,VALID,-0.0509425,VALID,19.0969,VALID,143,VALID,0,
2004-09-20, 03:20:00,VALID,917.145,VALID,0,VALID,100,VALID,-0.0679233,VALID,19.1001,VALID,143,VALID,0,
2004-09-20, 03:21:01,VALID,917.155,VALID,0,VALID,100,VALID,-0.0849042,VALID,19.087,VALID,143,VALID,0,
2004-09-20, 03:22:00,VALID,917.164,VALID,0,VALID,100,VALID,-0.0509425,VALID,19.0899,VALID,143,VALID,0,
2004-09-20, 03:23:01,VALID,917.165,VALID,0,VALID,100,VALID,-0.0679233,VALID,19.0999,VALID,142,VALID,0,
2004-09-20, 03:24:00,VALID,917.144,VALID,0,VALID,100,VALID,-0.0509425,VALID,19.0874,VALID,141,VALID,0,
2004-09-20, 03:25:00,VALID,917.135,VALID,0,VALID,100,VALID,-0.0509425,VALID,19.1036,VALID,139,VALID,0,
2004-09-20, 03:26:00,VALID,917.133,VALID,0,VALID,100,VALID,0.0339617,VALID,19.0987,VALID,138,VALID,0,
2004-09-20, 03:27:01,VALID,917.11,VALID,0,VALID,100,VALID,0.0339617,VALID,19.1086,VALID,138,VALID,0,
2004-09-20, 03:28:00,VALID,917.098,VALID,0,VALID,100,VALID,0.0339617,VALID,19.1217,VALID,138,VALID,0,
2004-09-20, 03:29:00,VALID,917.085,VALID,0,VALID,100,VALID,0.0679233,VALID,19.1021,VALID,138,VALID,0,
2004-09-20, 03:30:00,VALID,917.08,VALID,0,VALID,100,VALID,0.0339617,VALID,19.0825,VALID,138,VALID,0,
2004-09-20, 03:31:01,VALID,917.082,VALID,0,VALID,100,VALID,0.0509425,VALID,19.0671,VALID,138,VALID,0,
2004-09-20, 03:32:00,VALID,917.073,VALID,0,VALID,100,VALID,0.0849042,VALID,19.0339,VALID,138,VALID,0,
2004-09-20, 03:33:00,VALID,917.075,VALID,0,VALID,100,VALID,0.0339617,VALID,18.9991,VALID,138,VALID,0,
2004-09-20, 03:34:00,VALID,917.073,VALID,0,VALID,100,VALID,0,VALID,18.9698,VALID,138,VALID,0,
2004-09-20, 03:35:00,VALID,917.072,VALID,0,VALID,100,VALID,0.0339617,VALID,18.9608,VALID,138,VALID,0,
2004-09-20, 03:36:00,VALID,917.063,VALID,0,VALID,100,VALID,0,VALID,18.9347,VALID,138,VALID,0,
2004-09-20, 03:37:00,VALID,917.066,VALID,0,VALID,100,VALID,0.0509425,VALID,18.9179,VALID,138,VALID,0,
2004-09-20, 03:38:00,VALID,917.076,VALID,0,VALID,100,VALID,0.0509425,VALID,18.8734,VALID,136,VALID,0,
2004-09-20, 03:39:00,VALID,917.073,VALID,0,VALID,99.999,VALID,0.0339617,VALID,18.8215,VALID,130,VALID,0,